Year,Month,Day,Hour,Minute,Value (Times are PST for temperature in C)
2017,01,24,00,00,1.80
2017,01,24,00,01,1.80
2017,01,24,00,02,1.80
2017,01,24,00,03,1.80
2017,01,24,00,04,1.80
2017,01,24,00,05,1.80
2017,01,24,00,06,1.80
2017,01,24,00,07,1.80
2017,01,24,00,08,1.80
2017,01,24,00,09,1.80
2017,01,24,00,10,1.80
2017,01,24,00,11,1.70
2017,01,24,00,12,1.70
2017,01,24,00,13,1.70
2017,01,24,00,14,1.70
2017,01,24,00,15,1.70
2017,01,24,00,16,1.70
2017,01,24,00,17,1.70
2017,01,24,00,18,1.70
2017,01,24,00,19,1.80
2017,01,24,00,20,1.80
2017,01,24,00,21,1.80
2017,01,24,00,22,1.80
2017,01,24,00,23,1.80
2017,01,24,00,24,1.80
2017,01,24,00,25,1.80
2017,01,24,00,26,1.80
2017,01,24,00,27,1.80
2017,01,24,00,28,1.80
2017,01,24,00,29,1.80
2017,01,24,00,30,1.80
2017,01,24,00,31,1.80
2017,01,24,00,32,1.80
2017,01,24,00,33,1.80
2017,01,24,00,34,1.80
2017,01,24,00,35,1.80
2017,01,24,00,36,1.80
2017,01,24,00,37,1.80
2017,01,24,00,38,1.70
2017,01,24,00,39,1.70
2017,01,24,00,40,1.70
2017,01,24,00,41,1.70
2017,01,24,00,42,1.80
2017,01,24,00,43,1.80
2017,01,24,00,44,1.80
2017,01,24,00,45,1.80
2017,01,24,00,46,1.80
2017,01,24,00,47,1.80
2017,01,24,00,48,1.80
2017,01,24,00,49,1.80
2017,01,24,00,50,1.90
2017,01,24,00,51,1.90
2017,01,24,00,52,1.90
2017,01,24,00,53,1.90
2017,01,24,00,54,1.90
2017,01,24,00,55,1.90
2017,01,24,00,56,1.90
2017,01,24,00,57,1.90
2017,01,24,00,58,1.90
2017,01,24,00,59,1.90
2017,01,24,01,00,1.90
2017,01,24,01,01,1.90
2017,01,24,01,02,1.90
2017,01,24,01,03,1.90
2017,01,24,01,04,2.00
2017,01,24,01,05,2.00
2017,01,24,01,06,2.00
2017,01,24,01,07,2.00
2017,01,24,01,08,2.00
2017,01,24,01,09,2.00
2017,01,24,01,10,2.00
2017,01,24,01,11,1.90
2017,01,24,01,12,1.90
2017,01,24,01,13,1.90
2017,01,24,01,14,1.90
2017,01,24,01,15,2.00
2017,01,24,01,16,1.90
2017,01,24,01,17,2.00
2017,01,24,01,18,2.00
2017,01,24,01,19,2.00
2017,01,24,01,20,2.00
2017,01,24,01,21,2.10
2017,01,24,01,22,2.10
2017,01,24,01,23,2.10
2017,01,24,01,24,2.10
2017,01,24,01,25,2.10
2017,01,24,01,26,2.20
2017,01,24,01,27,2.20
2017,01,24,01,28,2.20
2017,01,24,01,29,2.20
2017,01,24,01,30,2.20
2017,01,24,01,31,2.20
2017,01,24,01,32,2.20
2017,01,24,01,33,2.30
2017,01,24,01,34,2.30
2017,01,24,01,35,2.30
2017,01,24,01,36,2.30
2017,01,24,01,37,2.30
2017,01,24,01,38,2.40
2017,01,24,01,39,2.40
2017,01,24,01,40,2.40
2017,01,24,01,41,2.40
2017,01,24,01,42,2.50
2017,01,24,01,43,2.50
2017,01,24,01,44,2.50
2017,01,24,01,45,2.50
2017,01,24,01,46,2.50
2017,01,24,01,47,2.50
2017,01,24,01,48,2.50
2017,01,24,01,49,2.50
2017,01,24,01,50,2.50
2017,01,24,01,51,2.50
2017,01,24,01,52,2.50
2017,01,24,01,53,2.50
2017,01,24,01,54,2.50
2017,01,24,01,55,2.50
2017,01,24,01,56,2.50
2017,01,24,01,57,2.50
2017,01,24,01,58,2.60
2017,01,24,01,59,2.50
2017,01,24,02,00,2.50
2017,01,24,02,01,2.50
2017,01,24,02,02,2.50
2017,01,24,02,03,2.50
2017,01,24,02,04,2.50
2017,01,24,02,05,2.40
2017,01,24,02,06,2.50
2017,01,24,02,07,2.50
2017,01,24,02,08,2.50
2017,01,24,02,09,2.50
2017,01,24,02,10,2.40
2017,01,24,02,11,2.40
2017,01,24,02,12,2.40
2017,01,24,02,13,2.40
2017,01,24,02,14,2.40
2017,01,24,02,15,2.40
2017,01,24,02,16,2.40
2017,01,24,02,17,2.40
2017,01,24,02,18,2.40
2017,01,24,02,19,2.50
2017,01,24,02,20,2.50
2017,01,24,02,21,2.50
2017,01,24,02,22,2.50
2017,01,24,02,23,2.50
2017,01,24,02,24,2.50
2017,01,24,02,25,2.60
2017,01,24,02,26,2.60
2017,01,24,02,27,2.60
2017,01,24,02,28,2.60
2017,01,24,02,29,2.60
2017,01,24,02,30,2.60
2017,01,24,02,31,2.70
2017,01,24,02,32,2.70
2017,01,24,02,33,2.70
2017,01,24,02,34,2.70
2017,01,24,02,35,2.70
2017,01,24,02,36,2.70
2017,01,24,02,37,2.70
2017,01,24,02,38,2.70
2017,01,24,02,39,2.70
2017,01,24,02,40,2.70
2017,01,24,02,41,2.60
2017,01,24,02,42,2.60
2017,01,24,02,43,2.60
2017,01,24,02,44,2.60
2017,01,24,02,45,2.60
2017,01,24,02,46,2.60
2017,01,24,02,47,2.60
2017,01,24,02,48,2.60
2017,01,24,02,49,2.60
2017,01,24,02,50,2.60
2017,01,24,02,51,2.60
2017,01,24,02,52,2.60
2017,01,24,02,53,2.60
2017,01,24,02,54,2.60
2017,01,24,09,07,2.70
2017,01,24,09,08,2.70
2017,01,24,09,09,2.70
2017,01,24,09,10,2.70
2017,01,24,09,11,2.70
2017,01,24,09,12,2.70
2017,01,24,09,13,2.70
2017,01,24,09,14,2.70
2017,01,24,09,15,2.80
2017,01,24,09,16,2.80
2017,01,24,09,17,2.80
2017,01,24,09,18,2.80
2017,01,24,09,19,2.80
2017,01,24,09,20,2.80
2017,01,24,09,21,2.80
2017,01,24,09,22,2.80
2017,01,24,09,23,2.80
2017,01,24,09,24,2.80
2017,01,24,09,25,2.90
2017,01,24,09,26,2.90
2017,01,24,09,27,2.90
2017,01,24,09,28,2.90
2017,01,24,09,29,2.90
2017,01,24,09,30,2.90
2017,01,24,09,31,2.90
2017,01,24,09,32,2.90
2017,01,24,09,33,2.90
2017,01,24,09,34,2.90
2017,01,24,09,35,3.00
2017,01,24,09,36,3.00
2017,01,24,09,37,3.00
2017,01,24,09,38,3.00
2017,01,24,09,39,3.00
2017,01,24,09,40,3.00
2017,01,24,09,41,3.00
2017,01,24,09,42,3.10
2017,01,24,09,43,3.10
2017,01,24,09,44,3.10
2017,01,24,09,45,3.10
2017,01,24,09,46,3.10
2017,01,24,09,47,3.20
2017,01,24,09,48,3.20
2017,01,24,09,49,3.20
2017,01,24,09,50,3.20
2017,01,24,09,51,3.20
2017,01,24,09,52,3.30
2017,01,24,09,53,3.30
2017,01,24,09,54,3.30
2017,01,24,09,55,3.30
2017,01,24,09,56,3.30
2017,01,24,09,57,3.30
2017,01,24,09,58,3.40
2017,01,24,09,59,3.40
2017,01,24,10,00,3.40
2017,01,24,10,01,3.40
2017,01,24,10,02,3.40
2017,01,24,10,03,3.50
2017,01,24,10,04,3.50
2017,01,24,10,05,3.50
2017,01,24,10,06,3.50
2017,01,24,10,07,3.50
2017,01,24,10,08,3.50
2017,01,24,10,09,3.50
2017,01,24,10,10,3.60
2017,01,24,10,11,3.60
2017,01,24,10,12,3.60
2017,01,24,10,13,3.60
2017,01,24,10,14,3.60
2017,01,24,10,15,3.70
2017,01,24,10,16,3.70
2017,01,24,10,17,3.70
2017,01,24,10,18,3.70
2017,01,24,10,19,3.80
2017,01,24,10,20,3.80
2017,01,24,10,21,3.80
2017,01,24,10,22,3.80
2017,01,24,10,23,3.80
2017,01,24,10,24,3.80
2017,01,24,10,25,3.90
2017,01,24,10,26,3.90
2017,01,24,10,27,3.90
2017,01,24,10,28,3.90
2017,01,24,10,29,4.00
2017,01,24,10,30,4.00
2017,01,24,10,31,4.00
2017,01,24,10,32,4.10
2017,01,24,10,33,4.10
2017,01,24,10,34,4.10
2017,01,24,10,35,4.20
2017,01,24,10,36,4.20
2017,01,24,10,37,4.20
2017,01,24,10,38,4.20
2017,01,24,10,39,4.30
2017,01,24,10,40,4.30
2017,01,24,10,41,4.30
2017,01,24,10,42,4.30
2017,01,24,10,43,4.40
2017,01,24,10,44,4.40
2017,01,24,10,45,4.40
2017,01,24,10,46,4.50
2017,01,24,10,47,4.50
2017,01,24,10,48,4.60
2017,01,24,10,49,4.60
2017,01,24,10,50,4.70
2017,01,24,10,51,4.70
2017,01,24,10,52,4.70
2017,01,24,10,53,4.70
2017,01,24,10,54,4.70
2017,01,24,10,55,4.80
2017,01,24,10,56,4.90
2017,01,24,10,57,4.90
2017,01,24,10,58,4.90
2017,01,24,10,59,5.00
2017,01,24,11,00,5.00
2017,01,24,11,01,5.00
2017,01,24,11,02,5.10
2017,01,24,11,03,5.10
2017,01,24,11,04,5.10
2017,01,24,11,05,5.10
2017,01,24,11,06,5.10
2017,01,24,11,07,5.10
2017,01,24,11,08,5.10
2017,01,24,11,09,5.20
2017,01,24,11,10,5.20
2017,01,24,11,11,5.20
2017,01,24,11,12,5.20
2017,01,24,11,13,5.20
2017,01,24,11,14,5.20
2017,01,24,11,15,5.30
2017,01,24,11,16,5.30
2017,01,24,11,17,5.30
2017,01,24,11,18,5.30
2017,01,24,11,19,5.30
2017,01,24,11,20,5.30
2017,01,24,11,21,5.30
2017,01,24,11,22,5.30
2017,01,24,11,23,5.30
2017,01,24,11,24,5.40
2017,01,24,11,25,5.40
2017,01,24,11,26,5.40
2017,01,24,11,27,5.40
2017,01,24,11,28,5.40
2017,01,24,11,29,5.40
2017,01,24,11,30,5.40
2017,01,24,11,31,5.50
2017,01,24,11,32,5.50
2017,01,24,11,33,5.50
2017,01,24,11,34,5.60
2017,01,24,11,35,5.60
2017,01,24,11,36,5.60
2017,01,24,11,37,5.70
2017,01,24,11,38,5.70
2017,01,24,11,39,5.70
2017,01,24,11,40,5.70
2017,01,24,11,41,5.70
2017,01,24,11,42,5.70
2017,01,24,11,43,5.80
2017,01,24,11,44,5.80
2017,01,24,11,45,5.80
2017,01,24,11,46,5.80
2017,01,24,11,47,5.80
2017,01,24,11,48,5.90
2017,01,24,11,49,5.90
2017,01,24,11,50,5.90
2017,01,24,11,51,6.00
2017,01,24,11,52,6.00
2017,01,24,11,53,6.00
2017,01,24,11,54,6.00
2017,01,24,11,55,6.10
2017,01,24,11,56,6.10
2017,01,24,11,57,6.10
2017,01,24,11,58,6.10
2017,01,24,11,59,6.20
2017,01,24,12,00,6.20
2017,01,24,12,01,6.20
2017,01,24,12,02,6.10
2017,01,24,12,03,6.10
2017,01,24,12,04,6.10
2017,01,24,12,05,6.10
2017,01,24,12,06,6.10
2017,01,24,12,07,6.10
2017,01,24,12,08,6.10
2017,01,24,12,09,6.10
2017,01,24,12,10,6.10
2017,01,24,12,11,6.10
2017,01,24,12,12,6.10
2017,01,24,12,13,6.20
2017,01,24,12,14,6.20
2017,01,24,12,15,6.20
2017,01,24,12,16,6.20
2017,01,24,12,17,6.20
2017,01,24,12,18,6.20
2017,01,24,12,19,6.20
2017,01,24,12,20,6.20
2017,01,24,12,21,6.20
2017,01,24,12,22,6.20
2017,01,24,12,23,6.30
2017,01,24,12,24,6.30
2017,01,24,12,25,6.30
2017,01,24,12,26,6.30
2017,01,24,12,27,6.30
2017,01,24,12,28,6.30
2017,01,24,12,29,6.30
2017,01,24,12,30,6.30
2017,01,24,12,31,6.40
2017,01,24,12,32,6.40
2017,01,24,12,33,6.40
2017,01,24,12,34,6.40
2017,01,24,12,35,6.40
2017,01,24,12,36,6.40
2017,01,24,12,37,6.40
2017,01,24,12,38,6.40
2017,01,24,12,39,6.40
2017,01,24,12,40,6.40
2017,01,24,12,41,6.40
2017,01,24,12,42,6.50
2017,01,24,12,43,6.50
2017,01,24,12,44,6.50
2017,01,24,12,45,6.50
2017,01,24,12,46,6.50
2017,01,24,12,47,6.50
2017,01,24,12,48,6.50
2017,01,24,12,49,6.50
2017,01,24,12,50,6.50
2017,01,24,12,51,6.60
2017,01,24,12,52,6.60
2017,01,24,12,53,6.60
2017,01,24,12,54,6.60
2017,01,24,12,55,6.60
2017,01,24,12,56,6.60
2017,01,24,12,57,6.60
2017,01,24,12,58,6.70
2017,01,24,12,59,6.70
2017,01,24,13,00,6.70
2017,01,24,13,01,6.70
2017,01,24,13,02,6.70
2017,01,24,13,03,6.70
2017,01,24,13,04,6.80
2017,01,24,13,05,6.80
2017,01,24,13,06,6.80
2017,01,24,13,07,6.80
2017,01,24,13,08,6.80
2017,01,24,13,09,6.80
2017,01,24,13,10,6.90
2017,01,24,13,11,6.90
2017,01,24,13,12,6.90
2017,01,24,13,13,7.00
2017,01,24,13,14,7.00
2017,01,24,13,15,7.10
2017,01,24,13,16,7.10
2017,01,24,13,17,7.10
2017,01,24,13,18,7.10
2017,01,24,13,19,7.20
2017,01,24,13,20,7.20
2017,01,24,13,21,7.20
2017,01,24,13,22,7.20
2017,01,24,13,23,7.20
2017,01,24,13,24,7.20
2017,01,24,13,25,7.30
2017,01,24,13,26,7.30
2017,01,24,13,27,7.30
2017,01,24,13,28,7.40
2017,01,24,13,29,7.40
2017,01,24,13,30,7.50
2017,01,24,13,31,7.50
2017,01,24,13,32,7.60
2017,01,24,13,33,7.70
2017,01,24,13,34,7.70
2017,01,24,13,35,7.80
2017,01,24,13,36,7.80
2017,01,24,13,37,7.80
2017,01,24,13,38,7.80
2017,01,24,13,39,7.90
2017,01,24,13,40,7.90
2017,01,24,13,41,7.90
2017,01,24,13,42,8.00
2017,01,24,13,43,8.00
2017,01,24,13,44,8.00
2017,01,24,13,45,8.00
2017,01,24,13,46,8.00
2017,01,24,13,47,7.90
2017,01,24,13,48,7.90
2017,01,24,13,49,7.90
2017,01,24,13,50,7.80
2017,01,24,13,51,7.80
2017,01,24,13,52,7.80
2017,01,24,13,53,7.80
2017,01,24,13,54,7.70
2017,01,24,13,55,7.70
2017,01,24,13,56,7.60
2017,01,24,13,57,7.60
2017,01,24,13,58,7.50
2017,01,24,13,59,7.50
2017,01,24,14,00,7.40
2017,01,24,14,01,7.40
2017,01,24,14,02,7.30
2017,01,24,14,03,7.20
2017,01,24,14,04,7.20
2017,01,24,14,05,7.20
2017,01,24,14,06,7.10
2017,01,24,14,07,7.10
2017,01,24,14,08,7.00
2017,01,24,14,09,7.00
2017,01,24,14,10,7.00
2017,01,24,14,11,7.00
2017,01,24,14,12,7.00
2017,01,24,14,13,7.00
2017,01,24,14,14,7.00
2017,01,24,14,15,7.00
2017,01,24,14,16,7.00
2017,01,24,14,17,7.00
2017,01,24,14,18,7.00
2017,01,24,14,19,7.00
2017,01,24,14,20,7.00
2017,01,24,14,21,7.00
2017,01,24,14,22,7.10
2017,01,24,14,23,7.10
2017,01,24,14,24,7.10
2017,01,24,14,25,7.10
2017,01,24,14,26,7.10
2017,01,24,14,27,7.10
2017,01,24,14,28,7.10
2017,01,24,14,29,7.10
2017,01,24,14,30,7.10
2017,01,24,14,31,7.20
2017,01,24,14,32,7.20
2017,01,24,14,33,7.20
2017,01,24,14,34,7.20
2017,01,24,14,35,7.20
2017,01,24,14,36,7.20
2017,01,24,14,37,7.20
2017,01,24,14,38,7.20
2017,01,24,14,39,7.20
2017,01,24,14,40,7.20
2017,01,24,14,41,7.20
2017,01,24,14,42,7.20
2017,01,24,14,43,7.20
2017,01,24,14,44,7.20
2017,01,24,14,45,7.20
2017,01,24,14,46,7.20
2017,01,24,14,47,7.30
2017,01,24,14,48,7.30
2017,01,24,14,49,7.30
2017,01,24,14,50,7.30
2017,01,24,14,51,7.30
2017,01,24,14,52,7.40
2017,01,24,14,53,7.40
2017,01,24,14,54,7.40
2017,01,24,14,55,7.50
2017,01,24,14,56,7.50
2017,01,24,14,57,7.50
2017,01,24,14,58,7.60
2017,01,24,14,59,7.60
2017,01,24,15,00,7.60
2017,01,24,15,01,7.60
2017,01,24,15,02,7.60
2017,01,24,15,03,7.60
2017,01,24,15,04,7.50
2017,01,24,15,05,7.50
2017,01,24,15,06,7.50
2017,01,24,15,07,7.50
2017,01,24,15,08,7.50
2017,01,24,15,09,7.40
2017,01,24,15,10,7.40
2017,01,24,15,11,7.40
2017,01,24,15,12,7.40
2017,01,24,15,13,7.40
2017,01,24,15,14,7.40
2017,01,24,15,15,7.40
2017,01,24,15,16,7.40
2017,01,24,15,17,7.40
2017,01,24,15,18,7.40
2017,01,24,15,19,7.40
2017,01,24,15,20,7.40
2017,01,24,15,21,7.40
2017,01,24,15,22,7.50
2017,01,24,15,23,7.50
2017,01,24,15,24,7.50
2017,01,24,15,25,7.50
2017,01,24,15,26,7.50
2017,01,24,15,27,7.50
2017,01,24,15,28,7.50
2017,01,24,15,29,7.50
2017,01,24,15,30,7.50
2017,01,24,15,31,7.50
2017,01,24,15,32,7.50
2017,01,24,15,33,7.50
2017,01,24,15,34,7.40
2017,01,24,15,35,7.40
2017,01,24,15,36,7.40
2017,01,24,15,37,7.40
2017,01,24,15,38,7.40
2017,01,24,15,39,7.40
2017,01,24,15,40,7.40
2017,01,24,15,41,7.40
2017,01,24,15,42,7.40
2017,01,24,15,43,7.40
2017,01,24,15,44,7.40
2017,01,24,15,45,7.40
2017,01,24,15,46,7.40
2017,01,24,15,47,7.40
2017,01,24,15,48,7.40
2017,01,24,15,49,7.40
2017,01,24,15,50,7.40
2017,01,24,15,51,7.40
2017,01,24,15,52,7.40
2017,01,24,15,53,7.30
2017,01,24,15,54,7.30
2017,01,24,15,55,7.30
2017,01,24,15,56,7.30
2017,01,24,15,57,7.30
2017,01,24,15,58,7.30
2017,01,24,15,59,7.30
2017,01,24,16,00,7.30
2017,01,24,16,01,7.30
2017,01,24,16,02,7.30
2017,01,24,16,03,7.30
2017,01,24,16,04,7.30
2017,01,24,16,05,7.30
2017,01,24,16,06,7.30
2017,01,24,16,07,7.20
2017,01,24,16,08,7.20
2017,01,24,16,09,7.20
2017,01,24,16,10,7.20
2017,01,24,16,11,7.20
2017,01,24,16,12,7.20
2017,01,24,16,13,7.20
2017,01,24,16,14,7.20
2017,01,24,16,15,7.20
2017,01,24,16,16,7.20
2017,01,24,16,17,7.20
2017,01,24,16,18,7.20
2017,01,24,16,19,7.20
2017,01,24,16,20,7.20
2017,01,24,16,21,7.20
2017,01,24,16,22,7.20
2017,01,24,16,23,7.20
2017,01,24,16,24,7.20
2017,01,24,16,25,7.20
2017,01,24,16,26,7.20
2017,01,24,16,27,7.20
2017,01,24,16,28,7.20
2017,01,24,16,29,7.20
2017,01,24,16,30,7.20
2017,01,24,16,31,7.20
2017,01,24,16,32,7.20
2017,01,24,16,33,7.20
2017,01,24,16,34,7.10
2017,01,24,16,35,7.10
2017,01,24,16,36,7.10
2017,01,24,16,37,7.00
2017,01,24,16,38,7.00
2017,01,24,16,39,7.00
2017,01,24,16,40,6.90
2017,01,24,16,41,6.90
2017,01,24,16,42,6.90
2017,01,24,16,43,6.90
2017,01,24,16,44,6.90
2017,01,24,16,45,6.90
2017,01,24,16,46,6.80
2017,01,24,16,47,6.80
2017,01,24,16,48,6.80
2017,01,24,16,49,6.80
2017,01,24,16,50,6.80
2017,01,24,16,51,6.80
2017,01,24,16,52,6.70
2017,01,24,16,53,6.70
2017,01,24,16,54,6.70
2017,01,24,16,55,6.70
2017,01,24,16,56,6.70
2017,01,24,16,57,6.70
2017,01,24,16,58,6.70
2017,01,24,16,59,6.60
2017,01,24,17,00,6.60
2017,01,24,17,01,6.60
2017,01,24,17,02,6.60
2017,01,24,17,03,6.60
2017,01,24,17,04,6.60
2017,01,24,17,05,6.50
2017,01,24,17,06,6.50
2017,01,24,17,07,6.50
2017,01,24,17,08,6.50
2017,01,24,17,09,6.50
2017,01,24,17,10,6.40
2017,01,24,17,11,6.40
2017,01,24,17,12,6.40
2017,01,24,17,13,6.40
2017,01,24,17,14,6.30
2017,01,24,17,15,6.30
2017,01,24,17,16,6.30
2017,01,24,17,17,6.30
2017,01,24,17,18,6.30
2017,01,24,17,19,6.20
2017,01,24,17,20,6.20
2017,01,24,17,21,6.20
2017,01,24,17,22,6.20
2017,01,24,17,23,6.10
2017,01,24,17,24,6.10
2017,01,24,17,25,6.10
2017,01,24,17,26,6.10
2017,01,24,17,27,6.00
2017,01,24,17,28,6.00
2017,01,24,17,29,6.00
2017,01,24,17,30,6.00
2017,01,24,17,31,5.90
2017,01,24,17,32,5.90
2017,01,24,17,33,5.90
2017,01,24,17,34,5.90
2017,01,24,17,35,5.80
2017,01,24,17,37,5.80
2017,01,24,17,38,5.80
2017,01,24,17,39,5.80
2017,01,24,17,40,5.80
2017,01,24,17,41,5.80
2017,01,24,17,42,5.70
2017,01,24,17,43,5.70
2017,01,24,17,44,5.70
2017,01,24,17,45,5.70
2017,01,24,17,46,5.70
2017,01,24,17,47,5.70
2017,01,24,17,48,5.70
2017,01,24,17,49,5.70
2017,01,24,17,50,5.70
2017,01,24,17,51,5.70
2017,01,24,17,52,5.70
2017,01,24,17,53,5.70
2017,01,24,17,54,5.70
2017,01,24,17,55,5.70
2017,01,24,17,56,5.70
2017,01,24,17,57,5.70
2017,01,24,17,58,5.70
2017,01,24,17,59,5.70
2017,01,24,18,00,5.70
2017,01,24,18,01,5.70
2017,01,24,18,02,5.70
2017,01,24,18,03,5.60
2017,01,24,18,04,5.60
2017,01,24,18,05,5.60
2017,01,24,18,06,5.60
2017,01,24,18,07,5.60
2017,01,24,18,08,5.60
2017,01,24,18,09,5.50
2017,01,24,18,10,5.50
2017,01,24,18,11,5.50
2017,01,24,18,12,5.50
2017,01,24,18,13,5.50
2017,01,24,18,14,5.50
2017,01,24,18,15,5.40
2017,01,24,18,16,5.40
2017,01,24,18,17,5.40
2017,01,24,18,18,5.40
2017,01,24,18,19,5.40
2017,01,24,18,20,5.40
2017,01,24,18,21,5.40
2017,01,24,18,22,5.40
2017,01,24,18,23,5.30
2017,01,24,18,24,5.30
2017,01,24,18,25,5.30
2017,01,24,18,26,5.30
2017,01,24,18,27,5.30
2017,01,24,18,28,5.30
2017,01,24,18,29,5.30
2017,01,24,18,30,5.20
2017,01,24,18,31,5.20
2017,01,24,18,32,5.20
2017,01,24,18,33,5.20
2017,01,24,18,34,5.20
2017,01,24,18,35,5.20
2017,01,24,18,36,5.20
2017,01,24,18,37,5.10
2017,01,24,18,38,5.10
2017,01,24,18,39,5.10
2017,01,24,18,40,5.10
2017,01,24,18,41,5.10
2017,01,24,18,42,5.10
2017,01,24,18,43,5.10
2017,01,24,18,44,5.10
2017,01,24,18,45,5.10
2017,01,24,18,46,5.10
2017,01,24,18,47,5.10
2017,01,24,18,48,5.00
2017,01,24,18,49,5.00
2017,01,24,18,50,5.00
2017,01,24,18,51,5.00
2017,01,24,18,52,5.00
2017,01,24,18,53,5.00
2017,01,24,18,54,5.00
2017,01,24,18,55,5.00
2017,01,24,18,56,4.90
2017,01,24,18,57,4.90
2017,01,24,18,58,4.90
2017,01,24,18,59,4.90
2017,01,24,19,00,4.90
2017,01,24,19,01,4.90
2017,01,24,19,02,4.90
2017,01,24,19,03,4.90
2017,01,24,19,04,4.90
2017,01,24,19,05,4.90
2017,01,24,19,06,4.90
2017,01,24,19,07,4.90
2017,01,24,19,08,4.90
2017,01,24,19,09,4.90
2017,01,24,19,10,4.90
2017,01,24,19,11,4.90
2017,01,24,19,12,4.90
2017,01,24,19,13,4.80
2017,01,24,19,14,4.80
2017,01,24,19,15,4.80
2017,01,24,19,16,4.80
2017,01,24,19,17,4.80
2017,01,24,19,18,4.80
2017,01,24,19,19,4.80
2017,01,24,19,20,4.80
2017,01,24,19,21,4.80
2017,01,24,19,22,4.80
2017,01,24,19,23,4.80
2017,01,24,19,24,4.80
2017,01,24,19,25,4.80
2017,01,24,19,26,4.80
2017,01,24,19,27,4.80
2017,01,24,19,28,4.80
2017,01,24,19,29,4.80
2017,01,24,19,30,4.80
2017,01,24,19,31,4.80
2017,01,24,19,32,4.80
2017,01,24,19,33,4.80
2017,01,24,19,34,4.80
2017,01,24,19,35,4.80
2017,01,24,19,36,4.80
2017,01,24,19,37,4.80
2017,01,24,19,38,4.80
2017,01,24,19,39,4.70
2017,01,24,19,40,4.70
2017,01,24,19,41,4.70
2017,01,24,19,42,4.70
2017,01,24,19,43,4.70
2017,01,24,19,44,4.70
2017,01,24,19,45,4.70
2017,01,24,19,46,4.70
2017,01,24,19,47,4.70
2017,01,24,19,48,4.70
2017,01,24,19,49,4.70
2017,01,24,19,50,4.70
2017,01,24,19,51,4.70
2017,01,24,19,52,4.70
2017,01,24,19,53,4.70
2017,01,24,19,54,4.80
2017,01,24,19,55,4.80
2017,01,24,19,56,4.80
2017,01,24,19,57,4.80
2017,01,24,19,58,4.80
2017,01,24,19,59,4.80
2017,01,24,20,00,4.80
2017,01,24,20,01,4.80
2017,01,24,20,02,4.80
2017,01,24,20,03,4.80
2017,01,24,20,04,4.80
2017,01,24,20,05,4.80
2017,01,24,20,06,4.80
2017,01,24,20,07,4.80
2017,01,24,20,08,4.80
2017,01,24,20,09,4.80
2017,01,24,20,10,4.80
2017,01,24,20,11,4.80
2017,01,24,20,12,4.80
2017,01,24,20,13,4.80
2017,01,24,20,14,4.80
2017,01,24,20,15,4.80
2017,01,24,20,16,4.80
2017,01,24,20,17,4.80
2017,01,24,20,18,4.90
2017,01,24,20,19,4.90
2017,01,24,20,20,4.90
2017,01,24,20,21,4.90
2017,01,24,20,22,4.90
2017,01,24,20,23,4.90
2017,01,24,20,24,4.90
2017,01,24,20,25,4.90
2017,01,24,20,26,4.90
2017,01,24,20,27,4.90
2017,01,24,20,28,4.90
2017,01,24,20,29,4.90
2017,01,24,20,30,4.90
2017,01,24,20,31,4.90
2017,01,24,20,32,4.90
2017,01,24,20,33,4.90
2017,01,24,20,34,4.90
2017,01,24,20,35,4.90
2017,01,24,20,36,4.90
2017,01,24,20,37,4.90
2017,01,24,20,38,4.80
2017,01,24,20,39,4.80
2017,01,24,20,40,4.80
2017,01,24,20,41,4.80
2017,01,24,20,42,4.80
2017,01,24,20,43,4.80
2017,01,24,20,44,4.80
2017,01,24,20,45,4.80
2017,01,24,20,46,4.80
2017,01,24,20,47,4.90
2017,01,24,20,48,4.90
2017,01,24,20,49,4.90
2017,01,24,20,50,4.90
2017,01,24,20,51,4.90
2017,01,24,20,52,4.90
2017,01,24,20,53,4.90
2017,01,24,20,54,4.90
2017,01,24,20,55,4.80
2017,01,24,20,56,4.80
2017,01,24,20,57,4.80
2017,01,24,20,58,4.80
2017,01,24,20,59,4.80
2017,01,24,21,00,4.80
2017,01,24,21,01,4.80
2017,01,24,21,02,4.80
2017,01,24,21,03,4.80
2017,01,24,21,04,4.70
2017,01,24,21,05,4.70
2017,01,24,21,06,4.70
2017,01,24,21,07,4.70
2017,01,24,21,08,4.70
2017,01,24,21,09,4.70
2017,01,24,21,10,4.70
2017,01,24,21,11,4.70
2017,01,24,21,12,4.70
2017,01,24,21,13,4.70
2017,01,24,21,14,4.70
2017,01,24,21,15,4.60
2017,01,24,21,16,4.60
2017,01,24,21,17,4.60
2017,01,24,21,18,4.60
2017,01,24,21,19,4.60
2017,01,24,21,20,4.60
2017,01,24,21,21,4.60
2017,01,24,21,22,4.60
2017,01,24,21,23,4.60
2017,01,24,21,24,4.60
2017,01,24,21,25,4.60
2017,01,24,21,26,4.50
2017,01,24,21,27,4.50
2017,01,24,21,28,4.50
2017,01,24,21,29,4.50
2017,01,24,21,30,4.50
2017,01,24,21,31,4.50
2017,01,24,21,32,4.50
2017,01,24,21,33,4.40
2017,01,24,21,34,4.40
2017,01,24,21,35,4.40
2017,01,24,21,36,4.40
2017,01,24,21,37,4.40
2017,01,24,21,38,4.40
2017,01,24,21,39,4.50
2017,01,24,21,40,4.40
2017,01,24,21,41,4.40
2017,01,24,21,42,4.40
2017,01,24,21,43,4.40
2017,01,24,21,44,4.40
2017,01,24,21,45,4.40
2017,01,24,21,46,4.40
2017,01,24,21,47,4.40
2017,01,24,21,48,4.40
2017,01,24,21,49,4.40
2017,01,24,21,50,4.40
2017,01,24,21,51,4.40
2017,01,24,21,52,4.40
2017,01,24,21,53,4.40
2017,01,24,21,54,4.40
2017,01,24,21,55,4.50
2017,01,24,21,56,4.50
2017,01,24,21,57,4.50
2017,01,24,21,58,4.50
2017,01,24,21,59,4.50
2017,01,24,22,00,4.50
2017,01,24,22,01,4.50
2017,01,24,22,02,4.50
2017,01,24,22,03,4.50
2017,01,24,22,04,4.60
2017,01,24,22,05,4.60
2017,01,24,22,06,4.60
2017,01,24,22,07,4.60
2017,01,24,22,08,4.60
2017,01,24,22,09,4.60
2017,01,24,22,10,4.60
2017,01,24,22,11,4.60
2017,01,24,22,12,4.50
2017,01,24,22,13,4.50
2017,01,24,22,14,4.50
2017,01,24,22,15,4.50
2017,01,24,22,16,4.50
2017,01,24,22,17,4.50
2017,01,24,22,18,4.50
2017,01,24,22,19,4.50
2017,01,24,22,20,4.50
2017,01,24,22,21,4.50
2017,01,24,22,22,4.50
2017,01,24,22,23,4.50
2017,01,24,22,24,4.50
2017,01,24,22,25,4.50
2017,01,24,22,26,4.50
2017,01,24,22,27,4.50
2017,01,24,22,28,4.50
2017,01,24,22,29,4.50
2017,01,24,22,30,4.50
2017,01,24,22,31,4.50
2017,01,24,22,32,4.50
2017,01,24,22,33,4.50
2017,01,24,22,34,4.50
2017,01,24,22,35,4.50
2017,01,24,22,36,4.50
2017,01,24,22,37,4.50
2017,01,24,22,38,4.50
2017,01,24,22,39,4.40
2017,01,24,22,40,4.40
2017,01,24,22,41,4.40
2017,01,24,22,42,4.40
2017,01,24,22,43,4.40
2017,01,24,22,44,4.40
2017,01,24,22,45,4.40
2017,01,24,22,46,4.40
2017,01,24,22,47,4.40
2017,01,24,22,48,4.40
2017,01,24,22,49,4.40
2017,01,24,22,50,4.40
2017,01,24,22,51,4.40
2017,01,24,22,52,4.40
2017,01,24,22,53,4.40
2017,01,24,22,54,4.40
2017,01,24,22,55,4.40
2017,01,24,22,56,4.40
2017,01,24,22,57,4.40
2017,01,24,22,58,4.40
2017,01,24,22,59,4.40
2017,01,24,23,00,4.40
2017,01,24,23,01,4.40
2017,01,24,23,02,4.40
2017,01,24,23,03,4.40
2017,01,24,23,04,4.40
2017,01,24,23,05,4.40
2017,01,24,23,06,4.40
2017,01,24,23,07,4.40
2017,01,24,23,08,4.40
2017,01,24,23,09,4.40
2017,01,24,23,10,4.40
2017,01,24,23,11,4.40
2017,01,24,23,12,4.40
2017,01,24,23,13,4.40
2017,01,24,23,14,4.40
2017,01,24,23,15,4.40
2017,01,24,23,16,4.40
2017,01,24,23,17,4.40
2017,01,24,23,18,4.40
2017,01,24,23,19,4.40
2017,01,24,23,20,4.40
2017,01,24,23,21,4.40
2017,01,24,23,22,4.40
2017,01,24,23,23,4.40
2017,01,24,23,24,4.40
2017,01,24,23,25,4.40
2017,01,24,23,26,4.50
2017,01,24,23,27,4.50
2017,01,24,23,28,4.50
2017,01,24,23,29,4.50
2017,01,24,23,30,4.50
2017,01,24,23,31,4.50
2017,01,24,23,32,4.50
2017,01,24,23,33,4.50
2017,01,24,23,34,4.50
2017,01,24,23,35,4.50
2017,01,24,23,36,4.50
2017,01,24,23,37,4.50
2017,01,24,23,38,4.50
2017,01,24,23,39,4.50
2017,01,24,23,40,4.50
2017,01,24,23,41,4.50
2017,01,24,23,42,4.50
2017,01,24,23,43,4.50
2017,01,24,23,44,4.50
2017,01,24,23,45,4.50
2017,01,24,23,46,4.50
2017,01,24,23,47,4.50
2017,01,24,23,48,4.50
2017,01,24,23,49,4.50
2017,01,24,23,50,4.50
2017,01,24,23,51,4.50
2017,01,24,23,52,4.50
2017,01,24,23,53,4.50
2017,01,24,23,54,4.50
2017,01,24,23,55,4.50
2017,01,24,23,56,4.50
2017,01,24,23,57,4.50
2017,01,24,23,58,4.50
2017,01,24,23,59,4.50
